Location: ??????
(55.6130°N, 37.7882°E)
Time: 13:27:18
(UTC+00:00)

Cosmos 972 Rocket - Pass Details

Date: 14 April 2024
Orbit: 713 x 1150 km, 75.8° (Epoch: 17 May)

Event Time Altitude Azimuth Distance (km) Brightness Sun altitude
Exits shadow 00:07:56 28° 210° (SSW) 1,484 4.9 -17.0°
Maximum altitude 00:10:53 81° 295° (WNW) 796 4.0 -16.7°
Drops below altitude 10° 00:15:58 10° 23° (NNE) 2,259 7.6 -16.2°
Sets 00:18:14 0° 25° (NNE) 3,159 8.6 -16.0°
